Regional Weather Roundup
Issued by NWS

Home | Current Version | Previous Version | Graphics & Text | Print | Product List | Glossary On
Versions: 1 2 3 4 5 6 7 8 9 10 11 12 13 14 15 16 17 18 19 20 21 22 23 24 25 26 27 28 29 30 31 32 33 34 35 36 37 38 39 40 41 42 43 44 45 46 47 48 49 50
000
ASUS45 KBOU 050607
RWRCO

WEATHER ROUNDUP FOR COLORADO
NATIONAL WEATHER SERVICE DENVER/BOULDER CO
1200 AM MDT SAT SEP 05 2015

NOTE: "FAIR" INDICATES FEW OR NO CLOUDS BELOW 12000 FEET WITH NO
SIGNIFICANT WEATHER AND/OR OBSTRUCTIONS TO VISIBILITY.

COZ001>005-013-030-031-050700-
...NORTHWEST COLORADO...

CITY           SKY/WX    TMP DP  RH WIND       PRES   REMARKS
CRAIG          PTCLDY    52  44  74 CALM      30.06S
HAYDEN         PTCLDY    55  43  62 NE7       30.08S
MEEKER         MOCLDY    63  47  55 E12       30.07S
MOUNT WERNER   NOT AVBL
STEAMBOAT SPGS PTCLDY    55  45  67 CALM      30.10F
WALDEN         CLOUDY    52  43  71 S3        30.19F
$$

COZ006>008-011-050700-
...WEST CENTRAL VALLEYS...

CITY           SKY/WX    TMP DP  RH WIND       PRES   REMARKS
GRAND JUNCTION CLOUDY    64  56  75 SE8       30.01R
MONTROSE       CLOUDY    59  52  77 W3        30.09R
EAGLE          CLOUDY    57  54  88 CALM      30.15S
RIFLE          MOCLDY    56  54  93 E3        30.05F
DELTA          RAIN      64  55  73 NE6       30.04F
NUCLA          LGT RAIN  55  50  82 W16G22    30.17R
$$

COZ017>023-064>068-050700-
...SOUTHWEST COLORADO...

CITY           SKY/WX    TMP DP  RH WIND       PRES   REMARKS
DURANGO        LGT RAIN  57  56  96 E5        30.20S
CORTEZ         LGT RAIN  59  55  87 S8        30.14R
PAGOSA SPRINGS DRIZZLE   55  55 100 CALM      30.27S
TELLURIDE      CLOUDY    53  46  76 CALM      30.30S
WOLF CREEK PAS NOT AVBL
$$

COZ009-010-012-014-032>034-037-058>063-050700-
...CENTRAL COLORADO...

CITY           SKY/WX    TMP DP  RH WIND       PRES   REMARKS
ASPEN          CLOUDY    52  49  89 CALM      30.18F
BUENA VISTA    CLOUDY    54  50  89 CALM      30.22F
COPPER MTN     CLOUDY    45  36  70 SE12G22   30.44F
BERTHOUD PASS  CLOUDY    39  28  65 W15G26    30.48F
COTTONWOOD PAS CLOUDY    54  41  62 W5        30.33S
GUNNISON       CLOUDY    54  48  82 CALM      30.25R
KREMMLING      CLOUDY    54  50  87 CALM      30.19S
LEADVILLE      CLOUDY    45  45 100 CALM      30.32F
MONARCH PASS   LGT RAIN  41  37  87 W12       30.56F VSB 1/4
SALIDA         CLOUDY    62  49  63 CALM      30.27S
SUNLIGHT       CLOUDY    46  45  93 S5        30.38F
WILKERSON PASS CLOUDY    43  41  93 SW12G22   30.42F
$$

COZ069>075-050700-
...SAN LUIS VALLEY/SANGRE DE CRISTO MOUNTAINS...

CITY           SKY/WX    TMP DP  RH WIND       PRES   REMARKS
ALAMOSA        CLOUDY    57  49  74 S15       30.21F
LA VETA PASS   CLOUDY    46  43  87 S17G39    30.33F
SAGUACHE       DRIZZLE   54  52  94 CALM      30.25S
$$

COZ035-036-038>040-050700-
...NORTHERN COLORADO FRONT RANGE...

CITY           SKY/WX    TMP DP  RH WIND       PRES   REMARKS
DENVER INTL AP CLOUDY    69  50  50 SE6       29.98R
DMNS CITY PARK   N/A     68  51  54 N3G9      29.97F
AURORA         CLOUDY    69  54  58 SW10      30.00S
FRONT RANGE AP CLOUDY    66  46  48 S5        29.99S
ERIE MUNI ARPT CLOUDY    68  49  50 CALM      29.96S
BOULDER MUN AP CLOUDY    70  46  43 CALM      29.96F
CENTENNIAL     CLOUDY    70  49  47 W7        30.01S
BROOMFIELD     CLOUDY    72  43  35 W9        29.99F
FORT COLLINS   CLOUDY    68  54  60 CALM      29.95F
LONGMONT       CLOUDY    67  50  54 S3        29.97S
$$

COZ041-046-047-076>085-087-088-050700-
...PIKES PEAK/PALMER DIVIDE AND SOUTHERN FOOTHILLS...

CITY           SKY/WX    TMP DP  RH WIND       PRES   REMARKS
COLO. SPRINGS  MOCLDY    65  49  56 E7        30.04S
A. F. ACADEMY  MOCLDY    62  46  55 CALM      30.06S
ELLICOTT         N/A    N/A N/A N/A S7        30.04S
FALCON         MOCLDY    59  47  64 N5        30.10S
FORT CARSON    MOCLDY    69  49  49 SW2       30.01S
LIMON          MOCLDY    71  49  45 SW7       29.98F
MONUMENT HILL  MOCLDY    55  46  71 S5        30.11S
TRINIDAD       CLOUDY    70  47  43 W6        30.08S
$$

COZ042>045-048>051-090-091-050700-
...NORTHEAST COLORADO...

CITY           SKY/WX    TMP DP  RH WIND       PRES   REMARKS
GREELEY ARPT   CLOUDY    66  54  63 W5        29.94R
AKRON          CLOUDY    70  56  61 CALM      29.91S
BURLINGTON     CLOUDY    79  47  32 S12       29.93R
WRAY           CLOUDY    80  51  36 S13G20    29.85S
STERLING       CLOUDY    70  59  68 NE8       29.86F
HOLYOKE        CLOUDY    73  61  64 CALM      29.87R
FORT MORGAN    CLOUDY    68  48  48 NW6       29.91S
$$

COZ086-089-092>099-050700-
...SOUTHEAST COLORADO...

CITY           SKY/WX    TMP DP  RH WIND       PRES   REMARKS
PUEBLO         MOCLDY    71  51  49 S3        29.95F
LA JUNTA       CLOUDY    78  49  35 SW12      29.95R
LAMAR          CLOUDY    79  49  34 SW9       29.91R
SPRINGFIELD      N/A     74  50  42 S8        30.00S
$$




USA.gov is the U.S. government's official web portal to all federal, state and local government web resources and services.